{"data":{"norad_id":43099,"intl_designator":"2018-002A","name":"SUPERVIEW-1 03","alt_names":[],"object_type":"PAYLOAD","status":"ACTIVE","operator":null,"country":"PRC","launch_date":"2018-01-09","launch_site_code":"TAISC","launch_vehicle":null,"mission":null,"orbit_class":"UNKNOWN","rcs_meters":null,"size_class":null,"mass_kg":null,"dimensions":null,"purposes":[],"wikipedia_slug":null,"has_3d_model":false,"image_url":null,"decayed_at":null,"tle_current":{"epoch":"2026-09-20T04:24:12.346272Z","epoch_age_seconds":78729,"freshness":"FRESH","line1":"1 43099U 18002A   26263.18347623  .00013896  00000+0  31662-3 0  9996","line2":"2 43099  97.3079 348.0432 0043532 195.7905 164.1988 15.42025029482998","mean_motion":15.42025029,"eccentricity":0.0043532,"inclination_deg":97.3079,"raan_deg":348.0432,"arg_perigee_deg":195.7905,"mean_anomaly_deg":164.1988,"bstar":0.00031662,"rev_number":48299,"period_min":93.383698248649,"perigee_km":410.45219118434,"apogee_km":469.81478134596,"semimajor_km":6818.2704862652,"source":"CELESTRAK","updated_at":"2026-09-20T09:00:14.301301Z"}}}